{"data":{"norad_id":62951,"intl_designator":"2025-029D","name":"STARLINK-32875","alt_names":[],"object_type":"PAYLOAD","status":"ACTIVE","operator":null,"country":"US","launch_date":"2025-02-11","launch_site_code":"AFWTR","launch_vehicle":null,"mission":null,"orbit_class":"UNKNOWN","rcs_meters":null,"size_class":null,"mass_kg":null,"dimensions":null,"purposes":["comms"],"wikipedia_slug":null,"has_3d_model":false,"image_url":null,"decayed_at":null,"tle_current":{"epoch":"2026-05-24T23:09:02.320416Z","epoch_age_seconds":78881,"freshness":"FRESH","line1":"1 62951U 25029D   26144.96461019  .00017119  00000+0  51666-3 0  9999","line2":"2 62951  53.1591 235.4740 0001113  91.9578 268.1552 15.34398774 73043","mean_motion":15.34398774,"eccentricity":0.0001113,"inclination_deg":53.1591,"raan_deg":235.474,"arg_perigee_deg":91.9578,"mean_anomaly_deg":268.1552,"bstar":0.00051666,"rev_number":7304,"period_min":93.847833066634,"perigee_km":461.94549821559,"apogee_km":463.4682700642,"semimajor_km":6840.8438841399,"source":"CELESTRAK","updated_at":"2026-05-25T13:38:19.824560Z"}}}